IRS B3

导读

IRS-B3是印度空间研究组织(ISRO)研制的IRS系列遥感卫星,于1996年3月21日发射升空,属于印度地球资源卫星家族,该系列卫星主要承担国土资源监测与管理任务。卫星运行于近地太阳同步轨道,搭载遥感载荷可获取地面观测数据,服务于农业、林业、地质勘探等领域应用,是印度90年代遥感卫星体系的重要组成,延续了IRS系列对地观测任务能力。

基本信息
目录编号:
23827
目录名称:
IRS B3
国际标识:
1996-017A
轨道中心:
EARTH
卫星名称:
IRS B3
卫星全名:
--
卫星状态:
在轨 (已飞行11134 天)
发射日期:
1996-03-21 UTC
国别 :
印度 (IN)
星等 :
--
该卫星已列入 空间交会检测服务 Space Conjunction Data Service (SCDS) ,当前飞行风险评估等级: 无高风险
轨道信息
数据来源 国际轨道数据 AOE轨道数据
星历时间 2026-09-13T21:46:55+0800
16小时前
查看轨道信息
2026-09-12T22:00:00+0800
1天前
查看轨道信息
半长轴 7190.814km 7190.82km
偏心率 0.000415 0.0004202
轨道倾角 99.026° 99.025°
近地点辐角 56.754° 58.051°
升交点赤经 282.394° 281.378°
平近点角 303.404° 266.019°
近地点 809.692km 809.661km
远地点 815.662km 815.705km
周期 101.141分钟 101.141分钟
每日圈数 14.237564 14.237546
详细信息
使用方式:
暂无
2D轨道图
3D轨道图
轨道高度分析图
轨道倾角分析图
轨道综合分析图
查看轨道综合分析图
交会数据列表
事件ID 空间交会对象 最接近时刻(TCA) 交会距离 交会风险概率(CRP) 交会风险指数(CRI) 操作
CDM_260915-073102-382702-616824
IRS B3 (23827)
CZ-4 DEB (26168)
2026-09-15T
07:31:13+0000
0.690 km
远距离
2.912287E-5 中风险 0.64
CDM_260914-134702-382703-686026
IRS B3 (23827)
2026-09-14T
13:47:31+0000
2.046 km
极远距离
2.376106E-6 低风险 0.43
CDM_260914-124302-382705-779426
IRS B3 (23827)
2026-09-14T
12:43:43+0000
2.298 km
极远距离
1.987413E-6 低风险 0.41
与全量物体交会距离演化趋势 订阅飞行安全评估服务
与全量物体交会风险概率演化趋势 订阅飞行安全评估服务